GW5116 Weather Reports


Display with metric or nautical units.
time (UTC)temp
F
wind
direction
speed
MPH
gust
MPH
rain 1hr
in
rain 24hr
in
rain mn
in
humidity
%
barometer
mb
20260504050450 44 356 0.0 0.0 0.00 0.00 0.00 89 1018.4
20260504045947 44 5 0.0 0.0 0.00 0.00 0.00 87 1018.3
20260504045443 44 347 0.0 0.0 0.00 0.00 0.00 84 1018.3
20260504044939 44 348 0.0 0.0 0.00 0.00 0.00 85 1018.3
20260504044437 44 354 0.0 0.0 0.00 0.00 0.00 85 1018.3
20260504043934 44 2 0.0 1.0 0.00 0.00 0.00 84 1018.2
20260504043431 44 14 1.0 1.0 0.00 0.00 0.00 85 1018.4
20260504042929 44 354 0.0 0.0 0.00 0.00 0.00 87 1018.2
20260504042425 44 347 0.0 0.0 0.00 0.00 0.00 86 1018.2
20260504041921 44 352 0.0 0.0 0.00 0.00 0.00 87 1017.9
20260504041418 43 353 0.0 0.0 0.00 0.00 0.00 87 1017.9
20260504040914 43 353 0.0 0.0 0.00 0.00 0.00 87 1018.2
20260504040412 43 347 0.0 0.0 0.00 0.00 0.00 87 1018.1
20260504035907 43 346 0.0 0.0 0.00 0.00 0.00 87 1017.9
20260504035405 43 351 0.0 0.0 0.00 0.00 0.00 87 1018.0
20260504034901 43 350 0.0 0.0 0.00 0.00 0.00 88 1018.1
20260504034359 42 348 0.0 0.0 0.00 0.00 0.00 88 1018.2
20260504033856 42 347 0.0 0.0 0.00 0.00 0.00 90 1018.1
20260504033354 42 348 0.0 0.0 0.00 0.00 0.00 89 1018.1
20260504032850 42 348 0.0 0.0 0.00 0.00 0.00 90 1018.0
20260504032347 42 348 0.0 0.0 0.00 0.00 0.00 89 1017.9
20260504031844 42 347 0.0 0.0 0.00 0.00 0.00 88 1017.9
20260504031341 42 348 0.0 0.0 0.00 0.00 0.00 90 1017.8
20260504030837 42 348 0.0 0.0 0.00 0.00 0.00 88 1017.8
20260504030335 42 348 0.0 0.0 0.00 0.00 0.00 88 1018.2
20260504025831 43 348 0.0 0.0 0.00 0.00 0.00 87 1017.9
20260504025328 43 348 0.0 0.0 0.00 0.00 0.00 87 1017.8
20260504024825 44 348 0.0 0.0 0.00 0.00 0.00 86 1017.9
20260504024321 44 348 0.0 0.0 0.00 0.00 0.00 86 1018.0
20260504023818 45 348 0.0 0.0 0.00 0.00 0.00 82 1017.8
20260504023315 46 347 0.0 0.0 0.00 0.00 0.00 82 1017.9
20260504022810 46 346 0.0 0.0 0.00 0.00 0.00 81 1017.7
20260504022308 47 349 0.0 0.0 0.00 0.00 0.00 80 1017.9
20260504021804 47 349 0.0 0.0 0.00 0.00 0.00 79 1017.7
20260504021302 48 348 0.0 0.0 0.00 0.00 0.00 76 1017.9
20260504020758 48 348 0.0 0.0 0.00 0.00 0.00 77 1017.6
20260504020255 48 352 0.0 0.0 0.00 0.00 0.00 75 1017.8
20260504015751 49 351 0.0 0.0 0.00 0.00 0.00 75 1017.8
20260504015248 49 351 0.0 0.0 0.00 0.00 0.00 72 1017.8
20260504014743 49 350 0.0 0.0 0.00 0.00 0.00 74 1017.8
20260504014240 49 351 0.0 0.0 0.00 0.00 0.00 75 1017.9
20260504013738 49 351 0.0 0.0 0.00 0.00 0.00 73 1018.0
20260504013235 50 351 0.0 0.0 0.00 0.00 0.00 72 1017.9
20260504012731 50 352 0.0 0.0 0.00 0.00 0.00 75 1018.0
20260504012229 50 351 0.0 0.0 0.00 0.00 0.00 72 1017.9
20260504011726 51 351 0.0 0.0 0.00 0.00 0.00 73 1017.8
20260504011223 51 351 0.0 0.0 0.00 0.00 0.00 70 1017.7
20260504010719 51 351 0.0 0.0 0.00 0.00 0.00 72 1017.8
20260504010215 52 351 0.0 0.0 0.00 0.00 0.00 66 1017.6
20260504005711 52 351 0.0 0.0 0.00 0.00 0.00 71 1017.7
20260504005209 52 351 0.0 0.0 0.00 0.00 0.00 75 1017.8
20260504004706 52 349 0.0 0.0 0.00 0.00 0.00 70 1017.6
20260504004203 53 350 0.0 0.0 0.00 0.00 0.00 64 1017.6
20260504003700 53 350 0.0 0.0 0.00 0.00 0.00 65 1017.7
20260504003156 53 326 0.0 0.0 0.00 0.00 0.00 66 1017.6
20260504002653 53 317 0.0 0.0 0.00 0.00 0.00 64 1017.5
20260504002150 54 24 0.0 0.0 0.00 0.00 0.00 67 1017.8
20260504001649 54 30 0.0 0.0 0.00 0.00 0.00 64 1017.5
20260504001144 54 41 0.0 0.0 0.00 0.00 0.00 61 1017.5
20260504000641 55 40 0.0 0.0 0.00 0.00 0.00 59 1017.5
20260504000139 56 77 0.0 0.0 0.00 0.00 0.00 59 1017.4
20260503235637 56 283 0.0 0.0 0.00 0.00 0.00 59 1017.5
20260503235133 57 306 0.0 0.0 0.00 0.00 0.00 63 1017.6
20260503234631 57 315 0.0 0.0 0.00 0.00 0.00 50 1017.8
20260503234129 57 319 0.0 0.0 0.00 0.00 0.00 51 1017.7
20260503233626 57 319 0.0 0.0 0.00 0.00 0.00 52 1017.6
20260503233121 57 320 0.0 0.0 0.00 0.00 0.00 49 1017.9
20260503232619 58 345 0.0 0.0 0.00 0.00 0.00 53 1017.9
20260503232116 58 40 0.0 0.0 0.00 0.00 0.00 51 1018.0
20260503231614 58 68 0.0 0.0 0.00 0.00 0.00 54 1018.0
20260503231110 58 173 0.0 0.0 0.00 0.00 0.00 51 1018.1
20260503230607 59 72 0.0 0.0 0.00 0.00 0.00 45 1018.2
20260503230104 59 40 0.0 0.0 0.00 0.00 0.00 49 1018.1
20260503225601 59 79 0.0 0.0 0.00 0.00 0.00 42 1018.2
20260503225056 60 5 0.0 1.0 0.00 0.00 0.00 35 1018.1
20260503224554 60 103 1.0 2.0 0.00 0.00 0.00 35 1017.9
20260503224052 60 353 2.0 3.0 0.00 0.00 0.00 34 1018.1
20260503223550 60 80 0.0 6.0 0.00 0.00 0.00 33 1018.1
20260503223045 60 120 2.0 4.0 0.00 0.00 0.00 35 1018.1
20260503222543 60 75 4.0 9.0 0.00 0.00 0.00 33 1018.2
20260503222041 60 99 5.0 7.0 0.00 0.00 0.00 33 1018.2
20260503221539 60 120 3.0 9.0 0.00 0.00 0.00 33 1018.3
20260503221036 62 111 3.0 8.0 0.00 0.00 0.00 33 1018.3
20260503220532 62 123 3.0 6.0 0.00 0.00 0.00 31 1018.3
20260503220029 61 72 2.0 3.0 0.00 0.00 0.00 31 1018.1
20260503215526 62 109 8.0 11.0 0.00 0.00 0.00 31 1018.2
20260503215023 62 118 1.0 3.0 0.00 0.00 0.00 32 1018.2
20260503214521 62 99 4.0 9.0 0.00 0.00 0.00 30 1018.3
20260503214018 62 152 4.0 8.0 0.00 0.00 0.00 31 1018.1
20260503213516 62 130 3.0 11.0 0.00 0.00 0.00 31 1018.3
20260503213013 62 11 0.0 3.0 0.00 0.00 0.00 33 1018.2
20260503212510 63 124 1.0 8.0 0.00 0.00 0.00 29 1018.1
20260503212007 62 144 2.0 8.0 0.00 0.00 0.00 30 1018.1
20260503211504 62 133 7.0 11.0 0.00 0.00 0.00 30 1018.1
20260503211000 62 118 4.0 10.0 0.00 0.00 0.00 31 1018.3
20260503210457 62 163 3.0 6.0 0.00 0.00 0.00 30 1018.2
20260503205957 62 94 3.0 7.0 0.00 0.00 0.00 31 1018.4
20260503205454 62 90 0.0 9.0 0.00 0.00 0.00 32 1018.1
20260503204951 61 114 10.0 13.0 0.00 0.00 0.00 32 1018.3
20260503204448 62 59 2.0 7.0 0.00 0.00 0.00 33 1018.5
20260503203945 63 52 2.0 7.0 0.00 0.00 0.00 34 1018.4
20260503203443 62 120 4.0 8.0 0.00 0.00 0.00 33 1018.8
20260503202939 62 58 2.0 6.0 0.00 0.00 0.00 31 1018.6
20260503202437 62 128 1.0 3.0 0.00 0.00 0.00 30 1018.6
20260503201936 62 134 4.0 9.0 0.00 0.00 0.00 32 1018.8
20260503201432 62 64 2.0 2.0 0.00 0.00 0.00 36 1018.7
20260503200930 61 118 4.0 8.0 0.00 0.00 0.00 36 1018.9
20260503200426 61 101 6.0 9.0 0.00 0.00 0.00 33 1019.1
20260503195923 61 70 4.0 11.0 0.00 0.00 0.00 31 1019.1
20260503195420 61 54 3.0 4.0 0.00 0.00 0.00 37 1019.5
20260503194916 62 21 5.0 7.0 0.00 0.00 0.00 34 1019.3
20260503194413 61 83 5.0 6.0 0.00 0.00 0.00 35 1019.6
20260503193909 62 292 2.0 4.0 0.00 0.00 0.00 35 1019.6
20260503193404 59 36 0.0 3.0 0.00 0.00 0.00 34 1019.8
20260503192900 60 66 6.0 11.0 0.00 0.00 0.00 35 1020.2
20260503192356 61 57 2.0 6.0 0.00 0.00 0.00 32 1019.9
20260503191853 60 22 4.0 7.0 0.00 0.00 0.00 37 1020.3
20260503191350 60 281 1.0 14.0 0.00 0.00 0.00 32 1020.3
20260503190846 59 107 4.0 13.0 0.00 0.00 0.00 35 1020.5
20260503190344 61 100 2.0 4.0 0.00 0.00 0.00 34 1020.5
20260503185841 60 62 3.0 8.0 0.00 0.00 0.00 32 1020.4
20260503185337 60 120 3.0 9.0 0.00 0.00 0.00 33 1020.7
20260503184836 60 69 2.0 3.0 0.00 0.00 0.00 37 1020.7
20260503184333 62 341 1.0 3.0 0.00 0.00 0.00 33 1020.4
20260503183828 58 64 2.0 8.0 0.00 0.00 0.00 35 1020.8
20260503183326 58 232 5.0 7.0 0.00 0.00 0.00 35 1021.1
20260503182823 58 43 4.0 7.0 0.00 0.00 0.00 34 1021.0
20260503182322 58 322 1.0 6.0 0.00 0.00 0.00 33 1020.9
20260503181819 58 164 1.0 4.0 0.00 0.00 0.00 37 1021.0
20260503181316 58 114 4.0 8.0 0.00 0.00 0.00 36 1020.9
20260503180812 59 127 2.0 7.0 0.00 0.00 0.00 36 1021.2
20260503180311 59 247 0.0 4.0 0.00 0.00 0.00 34 1021.0
20260503175806 59 354 2.0 3.0 0.00 0.00 0.00 42 1021.3
20260503175305 56 120 2.0 2.0 0.00 0.00 0.00 39 1021.1
20260503174805 56 291 1.0 2.0 0.00 0.00 0.00 35 1021.1
20260503174304 56 36 2.0 8.0 0.00 0.00 0.00 37 1021.3
20260503173759 56 53 3.0 8.0 0.00 0.00 0.00 34 1021.5
20260503173255 57 29 0.0 9.0 0.00 0.00 0.00 34 1021.4
20260503172752 56 61 5.0 7.0 0.00 0.00 0.00 37 1021.5
20260503172249 56 93 1.0 6.0 0.00 0.00 0.00 37 1021.6
20260503171746 57 49 2.0 6.0 0.00 0.00 0.00 36 1021.6
20260503171243 56 281 1.0 6.0 0.00 0.00 0.00 36 1021.6
20260503170740 57 106 2.0 4.0 0.00 0.00 0.00 38 1021.7
20260503170237 57 145 4.0 6.0 0.00 0.00 0.00 40 1021.9
20260503160159 55 125 3.0 6.0 0.00 0.00 0.00 40 1022.5
20260503150629 54 68 5.0 7.0 0.00 0.00 0.00 41 1023.1
20260503150125 53 25 4.0 6.0 0.00 0.00 0.00 44 1023.1
20260503131019 42 97 0.0 1.0 0.00 0.00 0.00 85 1023.3
20260503130516 42 118 1.0 1.0 0.00 0.00 0.00 85 1023.1
20260503110412 28 278 0.0 0.0 0.00 0.00 0.00 99 1022.2
20260503090303 28 278 0.0 0.0 0.00 0.00 0.00 99 1021.3
20260503081237 29 278 0.0 0.0 0.00 0.00 0.00 99 1021.1
20260503080732 29 278 0.0 0.0 0.00 0.00 0.00 99 1021.1
20260503080229 29 278 0.0 0.0 0.00 0.00 0.00 99 1021.1